Time,TemperatureF,DewpointF,PressureIn,WindDirection,WindDirectionDegrees,WindSpeedMPH,WindSpeedGustMPH,Humidity,HourlyPrecipIn,Conditions,Clouds,dailyrainin,SoftwareType,DateUTC
2013-07-23 00:00:00,67.6,59.0,29.69,SW,233,0.0,1.0,74,0.00,,,0.00,Wunderground v.1.15,2013-07-23 05:00:00,
2013-07-23 00:05:00,67.4,58.8,29.69,SW,233,0.0,1.0,74,0.00,,,0.00,Wunderground v.1.15,2013-07-23 05:05:00,
2013-07-23 00:10:00,67.4,58.8,29.69,SSE,167,0.0,1.0,74,0.00,,,0.00,Wunderground v.1.15,2013-07-23 05:10:00,
2013-07-23 00:15:00,67.2,58.6,29.69,SE,132,0.0,1.0,74,0.00,,,0.00,Wunderground v.1.15,2013-07-23 05:15:00,
2013-07-23 00:21:00,66.9,58.0,29.69,East,97,0.0,3.0,73,0.00,,,0.00,Wunderground v.1.15,2013-07-23 05:21:00,
2013-07-23 00:26:00,66.9,58.3,29.69,East,79,0.0,3.0,74,0.00,,,0.00,Wunderground v.1.15,2013-07-23 05:26:00,
2013-07-23 00:31:00,66.9,58.0,29.69,East,79,0.0,1.0,73,0.00,,,0.00,Wunderground v.1.15,2013-07-23 05:31:00,
2013-07-23 00:36:00,66.8,57.5,29.69,East,79,0.0,1.0,72,0.00,,,0.00,Wunderground v.1.15,2013-07-23 05:36:00,
2013-07-23 00:41:00,66.7,57.8,29.69,East,79,0.0,1.0,73,0.00,,,0.00,Wunderground v.1.15,2013-07-23 05:41:00,
2013-07-23 00:47:00,66.5,57.6,29.69,East,79,0.0,1.0,73,0.00,,,0.00,Wunderground v.1.15,2013-07-23 05:47:00,
2013-07-23 00:52:00,66.3,57.4,29.69,ENE,76,0.0,2.0,73,0.00,,,0.00,Wunderground v.1.15,2013-07-23 05:52:00,
2013-07-23 00:57:00,66.2,58.0,29.69,ENE,77,0.0,2.0,75,0.00,,,0.00,Wunderground v.1.15,2013-07-23 05:57:00,
2013-07-23 01:02:00,66.0,57.8,29.69,ENE,77,0.0,1.0,75,0.00,,,0.00,Wunderground v.1.15,2013-07-23 06:02:00,
2013-07-23 01:07:00,65.8,57.7,29.69,ENE,76,0.0,1.0,75,0.00,,,0.00,Wunderground v.1.15,2013-07-23 06:07:00,
2013-07-23 01:13:00,65.5,57.7,29.69,ENE,76,0.0,1.0,76,0.00,,,0.00,Wunderground v.1.15,2013-07-23 06:13:00,
2013-07-23 01:18:00,65.3,57.5,29.68,ENE,76,0.0,1.0,76,0.00,,,0.00,Wunderground v.1.15,2013-07-23 06:18:00,
2013-07-23 01:23:00,65.0,57.6,29.68,ENE,77,0.0,1.0,77,0.00,,,0.00,Wunderground v.1.15,2013-07-23 06:23:00,
2013-07-23 01:28:00,64.9,57.5,29.69,ENE,77,0.0,1.0,77,0.00,,,0.00,Wunderground v.1.15,2013-07-23 06:28:00,
2013-07-23 01:33:00,64.8,57.4,29.69,ENE,76,0.0,1.0,77,0.00,,,0.00,Wunderground v.1.15,2013-07-23 06:33:00,
2013-07-23 01:39:00,64.6,57.6,29.69,ENE,77,0.0,1.0,78,0.00,,,0.00,Wunderground v.1.15,2013-07-23 06:39:00,
2013-07-23 01:44:00,64.5,58.2,29.69,ENE,77,0.0,1.0,80,0.00,,,0.00,Wunderground v.1.15,2013-07-23 06:44:00,
2013-07-23 01:49:00,64.2,57.9,29.69,ENE,77,0.0,1.0,80,0.00,,,0.00,Wunderground v.1.15,2013-07-23 06:49:00,
2013-07-23 01:54:00,64.0,57.7,29.70,ENE,76,0.0,1.0,80,0.00,,,0.00,Wunderground v.1.15,2013-07-23 06:54:00,
2013-07-23 01:59:00,63.9,57.6,29.70,ENE,77,0.0,1.0,80,0.00,,,0.00,Wunderground v.1.15,2013-07-23 06:59:00,
2013-07-23 02:05:00,63.8,57.9,29.70,ENE,76,0.0,1.0,81,0.00,,,0.00,Wunderground v.1.15,2013-07-23 07:05:00,
2013-07-23 02:10:00,63.7,57.8,29.70,ENE,76,0.0,1.0,81,0.00,,,0.00,Wunderground v.1.15,2013-07-23 07:10:00,
2013-07-23 02:15:00,63.6,57.7,29.70,ENE,77,0.0,1.0,81,0.00,,,0.00,Wunderground v.1.15,2013-07-23 07:15:00,
2013-07-23 02:20:00,63.5,57.9,29.70,ENE,76,0.0,1.0,82,0.00,,,0.00,Wunderground v.1.15,2013-07-23 07:20:00,
2013-07-23 02:25:00,63.4,57.8,29.70,ENE,77,0.0,1.0,82,0.00,,,0.00,Wunderground v.1.15,2013-07-23 07:25:00,
2013-07-23 02:30:00,63.3,58.0,29.70,ENE,77,0.0,1.0,83,0.00,,,0.00,Wunderground v.1.15,2013-07-23 07:30:00,
2013-07-23 02:35:00,63.3,58.4,29.70,ENE,76,0.0,1.0,84,0.00,,,0.00,Wunderground v.1.15,2013-07-23 07:35:00,
2013-07-23 02:40:00,63.2,58.3,29.70,ENE,76,0.0,1.0,84,0.00,,,0.00,Wunderground v.1.15,2013-07-23 07:40:00,
2013-07-23 02:45:00,63.0,58.1,29.71,ENE,77,0.0,1.0,84,0.00,,,0.00,Wunderground v.1.15,2013-07-23 07:45:00,
2013-07-23 02:50:00,63.0,58.1,29.71,ENE,76,0.0,1.0,84,0.00,,,0.00,Wunderground v.1.15,2013-07-23 07:50:00,
2013-07-23 02:56:00,62.9,58.3,29.71,ENE,77,0.0,1.0,85,0.00,,,0.00,Wunderground v.1.15,2013-07-23 07:56:00,
2013-07-23 03:01:00,62.9,58.3,29.71,ENE,77,0.0,1.0,85,0.00,,,0.00,Wunderground v.1.15,2013-07-23 08:01:00,
2013-07-23 03:06:00,62.8,58.2,29.70,ENE,77,0.0,1.0,85,0.00,,,0.00,Wunderground v.1.15,2013-07-23 08:06:00,
2013-07-23 03:11:00,62.8,58.2,29.70,ENE,76,0.0,1.0,85,0.00,,,0.00,Wunderground v.1.15,2013-07-23 08:11:00,
2013-07-23 03:16:00,62.8,58.2,29.70,ENE,77,0.0,1.0,85,0.00,,,0.00,Wunderground v.1.15,2013-07-23 08:16:00,
2013-07-23 03:21:00,62.7,58.1,29.71,ENE,77,0.0,1.0,85,0.00,,,0.00,Wunderground v.1.15,2013-07-23 08:21:00,
2013-07-23 03:27:00,62.6,58.0,29.71,ENE,76,0.0,1.0,85,0.00,,,0.00,Wunderground v.1.15,2013-07-23 08:27:00,
2013-07-23 03:32:00,62.5,57.9,29.71,ENE,77,0.0,1.0,85,0.00,,,0.00,Wunderground v.1.15,2013-07-23 08:32:00,
2013-07-23 03:37:00,62.5,57.6,29.71,East,83,0.0,1.0,84,0.00,,,0.00,Wunderground v.1.15,2013-07-23 08:37:00,
2013-07-23 03:42:00,62.4,57.5,29.71,East,83,0.0,1.0,84,0.00,,,0.00,Wunderground v.1.15,2013-07-23 08:42:00,
2013-07-23 03:47:00,62.4,57.5,29.71,East,83,0.0,1.0,84,0.00,,,0.00,Wunderground v.1.15,2013-07-23 08:47:00,
2013-07-23 03:53:00,62.3,57.7,29.72,East,83,0.0,1.0,85,0.00,,,0.00,Wunderground v.1.15,2013-07-23 08:53:00,
2013-07-23 03:58:00,62.2,57.6,29.72,East,82,0.0,1.0,85,0.00,,,0.00,Wunderground v.1.15,2013-07-23 08:58:00,
2013-07-23 04:03:00,62.1,57.5,29.72,East,82,0.0,1.0,85,0.00,,,0.00,Wunderground v.1.15,2013-07-23 09:03:00,
2013-07-23 04:08:00,62.0,57.4,29.72,East,82,0.0,1.0,85,0.00,,,0.00,Wunderground v.1.15,2013-07-23 09:08:00,
2013-07-23 04:14:00,62.0,57.4,29.72,East,82,0.0,1.0,85,0.00,,,0.00,Wunderground v.1.15,2013-07-23 09:14:00,
2013-07-23 04:19:00,62.0,57.4,29.73,ESE,114,0.0,1.0,85,0.00,,,0.00,Wunderground v.1.15,2013-07-23 09:19:00,
2013-07-23 04:24:00,61.9,57.3,29.73,ESE,112,0.0,1.0,85,0.00,,,0.00,Wunderground v.1.15,2013-07-23 09:24:00,
2013-07-23 04:29:00,61.9,57.3,29.73,ENE,66,0.0,1.0,85,0.00,,,0.00,Wunderground v.1.15,2013-07-23 09:29:00,
2013-07-23 04:34:00,61.9,57.3,29.74,ENE,67,0.0,1.0,85,0.00,,,0.00,Wunderground v.1.15,2013-07-23 09:34:00,
2013-07-23 04:39:00,62.0,57.4,29.73,ENE,68,0.0,1.0,85,0.00,,,0.00,Wunderground v.1.15,2013-07-23 09:39:00,
2013-07-23 04:45:00,62.0,57.1,29.74,East,101,0.0,1.0,84,0.00,,,0.00,Wunderground v.1.15,2013-07-23 09:45:00,
2013-07-23 04:50:00,62.0,57.1,29.74,ENE,65,0.0,1.0,84,0.00,,,0.00,Wunderground v.1.15,2013-07-23 09:50:00,
2013-07-23 04:55:00,61.9,56.7,29.74,ENE,76,0.0,2.0,83,0.00,,,0.00,Wunderground v.1.15,2013-07-23 09:55:00,
2013-07-23 05:00:00,61.9,56.7,29.75,SSW,204,0.0,1.0,83,0.00,,,0.00,Wunderground v.1.15,2013-07-23 10:00:00,
2013-07-23 05:05:00,61.9,56.7,29.74,East,84,0.0,1.0,83,0.00,,,0.00,Wunderground v.1.15,2013-07-23 10:05:00,
2013-07-23 05:11:00,61.8,56.9,29.75,ESE,122,0.0,1.0,84,0.00,,,0.00,Wunderground v.1.15,2013-07-23 10:11:00,
2013-07-23 05:16:00,61.6,56.7,29.74,ESE,122,0.0,1.0,84,0.00,,,0.00,Wunderground v.1.15,2013-07-23 10:16:00,
2013-07-23 05:21:00,61.4,56.8,29.74,SE,139,0.0,1.0,85,0.00,,,0.00,Wunderground v.1.15,2013-07-23 10:21:00,
2013-07-23 05:26:00,61.2,56.7,29.74,SE,136,0.0,1.0,85,0.00,,,0.00,Wunderground v.1.15,2013-07-23 10:26:00,
2013-07-23 05:31:00,61.1,56.9,29.74,SE,136,0.0,1.0,86,0.00,,,0.00,Wunderground v.1.15,2013-07-23 10:31:00,
2013-07-23 05:37:00,60.8,56.6,29.74,SE,136,0.0,1.0,86,0.00,,,0.00,Wunderground v.1.15,2013-07-23 10:37:00,
2013-07-23 05:42:00,60.7,56.5,29.75,SE,136,0.0,1.0,86,0.00,,,0.00,Wunderground v.1.15,2013-07-23 10:42:00,
2013-07-23 05:47:00,60.6,56.4,29.75,East,85,0.0,1.0,86,0.00,,,0.00,Wunderground v.1.15,2013-07-23 10:47:00,
2013-07-23 05:52:00,60.4,56.2,29.76,East,84,0.0,1.0,86,0.00,,,0.00,Wunderground v.1.15,2013-07-23 10:52:00,
2013-07-23 05:57:00,60.3,56.1,29.75,East,85,0.0,1.0,86,0.00,,,0.00,Wunderground v.1.15,2013-07-23 10:57:00,
2013-07-23 06:02:00,60.2,56.0,29.76,East,85,0.0,1.0,86,0.00,,,0.00,Wunderground v.1.15,2013-07-23 11:02:00,
2013-07-23 06:07:00,60.1,56.2,29.77,East,87,0.0,1.0,87,0.00,,,0.00,Wunderground v.1.15,2013-07-23 11:07:00,
2013-07-23 06:12:00,60.1,56.2,29.77,East,88,0.0,1.0,87,0.00,,,0.00,Wunderground v.1.15,2013-07-23 11:12:00,
2013-07-23 06:17:00,60.0,56.1,29.77,East,89,0.0,1.0,87,0.00,,,0.00,Wunderground v.1.15,2013-07-23 11:17:00,
2013-07-23 06:22:00,60.0,56.1,29.77,East,89,0.0,1.0,87,0.00,,,0.00,Wunderground v.1.15,2013-07-23 11:22:00,
2013-07-23 06:27:00,60.0,56.1,29.77,East,89,0.0,1.0,87,0.00,,,0.00,Wunderground v.1.15,2013-07-23 11:27:00,
2013-07-23 06:33:00,60.1,56.5,29.77,East,96,0.0,1.0,88,0.00,,,0.00,Wunderground v.1.15,2013-07-23 11:33:00,
2013-07-23 06:38:00,60.1,56.5,29.77,East,96,0.0,1.0,88,0.00,,,0.00,Wunderground v.1.15,2013-07-23 11:38:00,
2013-07-23 06:43:00,60.1,56.5,29.77,East,96,0.0,1.0,88,0.00,,,0.00,Wunderground v.1.15,2013-07-23 11:43:00,
2013-07-23 06:48:00,60.2,56.9,29.77,East,96,0.0,1.0,89,0.00,,,0.00,Wunderground v.1.15,2013-07-23 11:48:00,
2013-07-23 06:53:00,60.4,57.1,29.77,NE,52,0.0,1.0,89,0.00,,,0.00,Wunderground v.1.15,2013-07-23 11:53:00,
2013-07-23 06:59:00,60.7,57.1,29.77,NE,51,0.0,1.0,88,0.00,,,0.00,Wunderground v.1.15,2013-07-23 11:59:00,
2013-07-23 07:04:00,60.9,57.0,29.78,ENE,57,0.0,1.0,87,0.00,,,0.00,Wunderground v.1.15,2013-07-23 12:04:00,
2013-07-23 07:09:00,61.1,57.2,29.78,ENE,77,0.0,1.0,87,0.00,,,0.00,Wunderground v.1.15,2013-07-23 12:09:00,
2013-07-23 07:14:00,61.2,57.3,29.79,SE,145,0.0,1.0,87,0.00,,,0.00,Wunderground v.1.15,2013-07-23 12:14:00,
2013-07-23 07:19:00,61.4,57.2,29.79,ENE,59,0.0,3.0,86,0.00,,,0.00,Wunderground v.1.15,2013-07-23 12:19:00,
2013-07-23 07:25:00,61.7,57.5,29.78,ENE,64,0.0,1.0,86,0.00,,,0.00,Wunderground v.1.15,2013-07-23 12:25:00,
2013-07-23 07:30:00,61.9,57.3,29.78,NNE,13,1.0,1.0,85,0.00,,,0.00,Wunderground v.1.15,2013-07-23 12:30:00,
2013-07-23 07:35:00,62.1,57.2,29.78,NE,39,1.0,2.0,84,0.00,,,0.00,Wunderground v.1.15,2013-07-23 12:35:00,
2013-07-23 07:40:00,62.4,57.2,29.79,North,1,1.0,1.0,83,0.00,,,0.00,Wunderground v.1.15,2013-07-23 12:40:00,
2013-07-23 07:45:00,62.5,57.3,29.79,ENE,72,1.0,3.0,83,0.00,,,0.00,Wunderground v.1.15,2013-07-23 12:45:00,
2013-07-23 07:51:00,62.6,57.0,29.80,East,79,1.0,2.0,82,0.00,,,0.00,Wunderground v.1.15,2013-07-23 12:51:00,
2013-07-23 07:56:00,62.7,57.5,29.80,North,4,1.0,2.0,83,0.00,,,0.00,Wunderground v.1.15,2013-07-23 12:56:00,
2013-07-23 08:01:00,63.0,57.8,29.80,NE,43,1.0,1.0,83,0.00,,,0.00,Wunderground v.1.15,2013-07-23 13:01:00,
2013-07-23 08:06:00,63.2,57.6,29.80,North,7,1.0,1.0,82,0.00,,,0.00,Wunderground v.1.15,2013-07-23 13:06:00,
2013-07-23 08:11:00,63.3,57.4,29.80,ENE,74,1.0,3.0,81,0.00,,,0.00,Wunderground v.1.15,2013-07-23 13:11:00,
2013-07-23 08:17:00,63.4,57.5,29.80,NE,37,1.0,3.0,81,0.00,,,0.00,Wunderground v.1.15,2013-07-23 13:17:00,
2013-07-23 08:22:00,63.6,57.7,29.80,East,79,1.0,2.0,81,0.00,,,0.00,Wunderground v.1.15,2013-07-23 13:22:00,
2013-07-23 08:27:00,63.5,56.9,29.79,ENE,68,1.0,2.0,79,0.00,,,0.00,Wunderground v.1.15,2013-07-23 13:27:00,
2013-07-23 08:32:00,63.6,57.0,29.80,East,88,2.0,2.0,79,0.00,,,0.00,Wunderground v.1.15,2013-07-23 13:32:00,
2013-07-23 08:37:00,63.7,57.1,29.80,North,359,1.0,2.0,79,0.00,,,0.00,Wunderground v.1.15,2013-07-23 13:37:00,
2013-07-23 08:43:00,63.8,56.1,29.80,ENE,77,1.0,4.0,76,0.00,,,0.00,Wunderground v.1.15,2013-07-23 13:43:00,
2013-07-23 08:48:00,64.0,57.0,29.79,ENE,59,2.0,4.0,78,0.00,,,0.00,Wunderground v.1.15,2013-07-23 13:48:00,
2013-07-23 08:53:00,64.3,56.6,29.79,East,89,2.0,4.0,76,0.00,,,0.00,Wunderground v.1.15,2013-07-23 13:53:00,
2013-07-23 08:58:00,64.5,56.8,29.79,ESE,108,2.0,4.0,76,0.00,,,0.00,Wunderground v.1.15,2013-07-23 13:58:00,
2013-07-23 09:03:00,64.6,57.2,29.78,ENE,73,2.0,3.0,77,0.00,,,0.00,Wunderground v.1.15,2013-07-23 14:03:00,
2013-07-23 09:09:00,64.8,56.3,29.79,East,89,2.0,4.0,74,0.00,,,0.00,Wunderground v.1.15,2013-07-23 14:09:00,
2013-07-23 09:14:00,65.0,56.1,29.79,ENE,60,2.0,3.0,73,0.00,,,0.00,Wunderground v.1.15,2013-07-23 14:14:00,
2013-07-23 09:19:00,65.2,56.3,29.79,NNE,26,1.0,3.0,73,0.00,,,0.00,Wunderground v.1.15,2013-07-23 14:19:00,
2013-07-23 09:24:00,65.4,56.5,29.79,ENE,57,1.0,2.0,73,0.00,,,0.00,Wunderground v.1.15,2013-07-23 14:24:00,
2013-07-23 09:29:00,65.5,56.2,29.80,NNE,20,2.0,3.0,72,0.00,,,0.00,Wunderground v.1.15,2013-07-23 14:29:00,
2013-07-23 09:35:00,65.8,56.5,29.80,East,83,2.0,2.0,72,0.00,,,0.00,Wunderground v.1.15,2013-07-23 14:35:00,
2013-07-23 09:40:00,66.1,56.8,29.80,ENE,70,2.0,2.0,72,0.00,,,0.00,Wunderground v.1.15,2013-07-23 14:40:00,
2013-07-23 09:45:00,66.3,56.6,29.81,ENE,58,2.0,4.0,71,0.00,,,0.00,Wunderground v.1.15,2013-07-23 14:45:00,
2013-07-23 09:50:00,66.9,56.8,29.81,East,86,1.0,2.0,70,0.00,,,0.00,Wunderground v.1.15,2013-07-23 14:50:00,
2013-07-23 09:55:00,67.5,56.6,29.82,East,90,1.0,2.0,68,0.00,,,0.00,Wunderground v.1.15,2013-07-23 14:55:00,
2013-07-23 10:01:00,68.3,56.9,29.82,East,81,1.0,1.0,67,0.00,,,0.00,Wunderground v.1.15,2013-07-23 15:01:00,
2013-07-23 10:06:00,69.0,57.2,29.82,ENE,74,1.0,1.0,66,0.00,,,0.00,Wunderground v.1.15,2013-07-23 15:06:00,
2013-07-23 10:11:00,69.4,56.7,29.82,ESE,120,1.0,2.0,64,0.00,,,0.00,Wunderground v.1.15,2013-07-23 15:11:00,
2013-07-23 10:16:00,68.8,57.0,29.82,NE,44,2.0,3.0,66,0.00,,,0.00,Wunderground v.1.15,2013-07-23 15:16:00,
2013-07-23 10:21:00,69.4,57.1,29.83,WSW,252,2.0,2.0,65,0.00,,,0.00,Wunderground v.1.15,2013-07-23 15:21:00,
2013-07-23 10:26:00,70.1,56.9,29.82,ENE,58,1.0,3.0,63,0.00,,,0.00,Wunderground v.1.15,2013-07-23 15:26:00,
2013-07-23 10:31:00,69.8,57.1,29.83,NNW,341,2.0,2.0,64,0.00,,,0.00,Wunderground v.1.15,2013-07-23 15:31:00,
2013-07-23 10:36:00,70.1,56.0,29.82,NNE,33,2.0,5.0,61,0.00,,,0.00,Wunderground v.1.15,2013-07-23 15:36:00,
2013-07-23 10:41:00,70.0,55.9,29.83,North,356,2.0,2.0,61,0.00,,,0.00,Wunderground v.1.15,2013-07-23 15:41:00,
2013-07-23 10:46:00,70.8,56.7,29.83,WSW,245,1.0,2.0,61,0.00,,,0.00,Wunderground v.1.15,2013-07-23 15:46:00,
2013-07-23 10:52:00,71.8,58.1,29.83,East,100,1.0,3.0,62,0.00,,,0.00,Wunderground v.1.15,2013-07-23 15:52:00,
2013-07-23 10:57:00,71.8,56.2,29.82,NNE,25,1.0,3.0,58,0.00,,,0.00,Wunderground v.1.15,2013-07-23 15:57:00,
2013-07-23 11:02:00,71.3,55.8,29.82,NNW,342,2.0,4.0,58,0.00,,,0.00,Wunderground v.1.15,2013-07-23 16:02:00,
2013-07-23 11:07:00,70.9,56.8,29.83,SE,132,2.0,4.0,61,0.00,,,0.00,Wunderground v.1.15,2013-07-23 16:07:00,
2013-07-23 11:12:00,70.9,55.9,29.83,ENE,72,2.0,4.0,59,0.00,,,0.00,Wunderground v.1.15,2013-07-23 16:12:00,
2013-07-23 11:17:00,71.0,56.9,29.83,ENE,62,2.0,4.0,61,0.00,,,0.00,Wunderground v.1.15,2013-07-23 16:17:00,
2013-07-23 11:23:00,71.1,57.0,29.83,ESE,111,2.0,3.0,61,0.00,,,0.00,Wunderground v.1.15,2013-07-23 16:23:00,
2013-07-23 11:28:00,71.9,55.8,29.83,SSE,168,2.0,3.0,57,0.00,,,0.00,Wunderground v.1.15,2013-07-23 16:28:00,
2013-07-23 11:33:00,72.0,56.4,29.83,NW,315,2.0,4.0,58,0.00,,,0.00,Wunderground v.1.15,2013-07-23 16:33:00,
2013-07-23 11:38:00,73.0,58.3,29.83,East,80,1.0,4.0,60,0.00,,,0.00,Wunderground v.1.15,2013-07-23 16:38:00,
2013-07-23 11:43:00,73.1,57.0,29.83,North,5,1.0,3.0,57,0.00,,,0.00,Wunderground v.1.15,2013-07-23 16:43:00,
2013-07-23 11:49:00,73.3,56.2,29.83,SE,125,2.0,3.0,55,0.00,,,0.00,Wunderground v.1.15,2013-07-23 16:49:00,
2013-07-23 11:54:00,73.5,56.3,29.83,East,81,2.0,4.0,55,0.00,,,0.00,Wunderground v.1.15,2013-07-23 16:54:00,
2013-07-23 11:59:00,73.6,56.9,29.83,ESE,114,2.0,4.0,56,0.00,,,0.00,Wunderground v.1.15,2013-07-23 16:59:00,
2013-07-23 12:04:00,73.2,56.6,29.83,NE,41,2.0,4.0,56,0.00,,,0.00,Wunderground v.1.15,2013-07-23 17:04:00,
2013-07-23 12:09:00,72.5,56.9,29.83,NNW,340,3.0,4.0,58,0.00,,,0.00,Wunderground v.1.15,2013-07-23 17:09:00,
2013-07-23 12:15:00,72.1,56.0,29.83,WSW,252,3.0,4.0,57,0.00,,,0.00,Wunderground v.1.15,2013-07-23 17:15:00,
2013-07-23 12:20:00,72.9,56.8,29.83,ENE,57,2.0,2.0,57,0.00,,,0.00,Wunderground v.1.15,2013-07-23 17:20:00,
2013-07-23 12:25:00,73.4,57.7,29.83,East,96,2.0,2.0,58,0.00,,,0.00,Wunderground v.1.15,2013-07-23 17:25:00,
2013-07-23 12:30:00,74.3,57.6,29.83,NE,35,1.0,1.0,56,0.00,,,0.00,Wunderground v.1.15,2013-07-23 17:30:00,
2013-07-23 12:35:00,74.6,57.4,29.83,NE,41,1.0,3.0,55,0.00,,,0.00,Wunderground v.1.15,2013-07-23 17:35:00,
2013-07-23 12:41:00,74.4,55.1,29.83,ENE,63,2.0,2.0,51,0.00,,,0.00,Wunderground v.1.15,2013-07-23 17:41:00,
2013-07-23 12:46:00,73.8,56.1,29.83,ENE,60,2.0,4.0,54,0.00,,,0.00,Wunderground v.1.15,2013-07-23 17:46:00,
2013-07-23 12:51:00,73.2,56.1,29.83,ENE,62,3.0,3.0,55,0.00,,,0.00,Wunderground v.1.15,2013-07-23 17:51:00,
2013-07-23 12:56:00,73.3,56.7,29.83,SE,129,3.0,3.0,56,0.00,,,0.00,Wunderground v.1.15,2013-07-23 17:56:00,
2013-07-23 13:02:00,74.5,56.8,29.83,WNW,290,1.0,2.0,54,0.00,,,0.00,Wunderground v.1.15,2013-07-23 18:02:00,
2013-07-23 13:07:00,75.4,57.1,29.83,ESE,102,1.0,2.0,53,0.00,,,0.00,Wunderground v.1.15,2013-07-23 18:07:00,
2013-07-23 13:13:00,75.2,55.8,29.83,ENE,68,2.0,6.0,51,0.00,,,0.00,Wunderground v.1.15,2013-07-23 18:13:00,
2013-07-23 13:18:00,74.5,55.2,29.83,NNE,20,2.0,6.0,51,0.00,,,0.00,Wunderground v.1.15,2013-07-23 18:18:00,
2013-07-23 13:23:00,74.2,56.0,29.82,NNW,343,3.0,4.0,53,0.00,,,0.00,Wunderground v.1.15,2013-07-23 18:23:00,
2013-07-23 13:29:00,74.5,56.8,29.82,ENE,71,2.0,5.0,54,0.00,,,0.00,Wunderground v.1.15,2013-07-23 18:29:00,
2013-07-23 13:35:00,75.3,57.5,29.82,ENE,71,2.0,2.0,54,0.00,,,0.00,Wunderground v.1.15,2013-07-23 18:35:00,
2013-07-23 13:40:00,75.5,55.6,29.82,NNW,335,2.0,2.0,50,0.00,,,0.00,Wunderground v.1.15,2013-07-23 18:40:00,
2013-07-23 13:45:00,75.4,56.0,29.82,ENE,70,2.0,5.0,51,0.00,,,0.00,Wunderground v.1.15,2013-07-23 18:45:00,
2013-07-23 13:50:00,74.9,56.1,29.82,ENE,68,2.0,2.0,52,0.00,,,0.00,Wunderground v.1.15,2013-07-23 18:50:00,
2013-07-23 13:55:00,74.8,56.0,29.82,ENE,72,2.0,2.0,52,0.00,,,0.00,Wunderground v.1.15,2013-07-23 18:55:00,
2013-07-23 14:00:00,74.8,56.5,29.83,ENE,68,2.0,3.0,53,0.00,,,0.00,Wunderground v.1.15,2013-07-23 19:00:00,
2013-07-23 14:05:00,75.3,56.5,29.83,ENE,61,2.0,5.0,52,0.00,,,0.00,Wunderground v.1.15,2013-07-23 19:05:00,
2013-07-23 14:10:00,75.5,55.0,29.83,ENE,69,2.0,2.0,49,0.00,,,0.00,Wunderground v.1.15,2013-07-23 19:10:00,
2013-07-23 14:16:00,76.1,57.7,29.83,East,83,2.0,2.0,53,0.00,,,0.00,Wunderground v.1.15,2013-07-23 19:16:00,
2013-07-23 14:21:00,76.3,55.7,29.83,SE,129,1.0,1.0,49,0.00,,,0.00,Wunderground v.1.15,2013-07-23 19:21:00,
2013-07-23 14:26:00,77.2,56.6,29.83,SW,228,1.0,3.0,49,0.00,,,0.00,Wunderground v.1.15,2013-07-23 19:26:00,
2013-07-23 14:32:00,77.8,56.0,29.83,NNW,342,1.0,3.0,47,0.00,,,0.00,Wunderground v.1.15,2013-07-23 19:32:00,
2013-07-23 14:37:00,77.3,55.5,29.83,ENE,78,2.0,3.0,47,0.00,,,0.00,Wunderground v.1.15,2013-07-23 19:37:00,
2013-07-23 14:43:00,77.4,57.3,29.82,ENE,72,1.0,2.0,50,0.00,,,0.00,Wunderground v.1.15,2013-07-23 19:43:00,
2013-07-23 14:48:00,78.0,56.7,29.82,SSE,160,1.0,3.0,48,0.00,,,0.00,Wunderground v.1.15,2013-07-23 19:48:00,
2013-07-23 14:53:00,78.1,56.2,29.82,NNW,328,1.0,3.0,47,0.00,,,0.00,Wunderground v.1.15,2013-07-23 19:53:00,
2013-07-23 14:58:00,78.3,57.0,29.83,ESE,103,1.0,3.0,48,0.00,,,0.00,Wunderground v.1.15,2013-07-23 19:58:00,
2013-07-23 15:03:00,78.1,56.8,29.82,East,89,1.0,2.0,48,0.00,,,0.00,Wunderground v.1.15,2013-07-23 20:03:00,
2013-07-23 15:09:00,76.6,56.0,29.82,ENE,75,2.0,3.0,49,0.00,,,0.00,Wunderground v.1.15,2013-07-23 20:09:00,
2013-07-23 15:14:00,76.3,55.7,29.82,East,83,2.0,2.0,49,0.00,,,0.00,Wunderground v.1.15,2013-07-23 20:14:00,
2013-07-23 15:19:00,76.6,56.6,29.82,NE,46,2.0,4.0,50,0.00,,,0.00,Wunderground v.1.15,2013-07-23 20:19:00,
2013-07-23 15:25:00,77.6,55.2,29.82,SW,219,1.0,2.0,46,0.00,,,0.00,Wunderground v.1.15,2013-07-23 20:25:00,
2013-07-23 15:31:00,77.9,57.2,29.82,East,85,1.0,2.0,49,0.00,,,0.00,Wunderground v.1.15,2013-07-23 20:31:00,
2013-07-23 15:36:00,78.1,56.8,29.82,NNE,25,1.0,3.0,48,0.00,,,0.00,Wunderground v.1.15,2013-07-23 20:36:00,
2013-07-23 15:42:00,78.4,56.5,29.82,ESE,102,1.0,2.0,47,0.00,,,0.00,Wunderground v.1.15,2013-07-23 20:42:00,
2013-07-23 15:47:00,78.0,56.1,29.82,SSW,200,1.0,3.0,47,0.00,,,0.00,Wunderground v.1.15,2013-07-23 20:47:00,
2013-07-23 15:52:00,77.1,57.6,29.82,East,79,2.0,2.0,51,0.00,,,0.00,Wunderground v.1.15,2013-07-23 20:52:00,
2013-07-23 15:57:00,76.5,58.1,29.82,East,89,2.0,3.0,53,0.00,,,0.00,Wunderground v.1.15,2013-07-23 20:57:00,
2013-07-23 16:02:00,76.7,56.7,29.82,North,351,2.0,2.0,50,0.00,,,0.00,Wunderground v.1.15,2013-07-23 21:02:00,
2013-07-23 16:07:00,77.3,56.6,29.82,South,186,1.0,2.0,49,0.00,,,0.00,Wunderground v.1.15,2013-07-23 21:07:00,
2013-07-23 16:12:00,77.9,56.6,29.82,NNE,20,1.0,1.0,48,0.00,,,0.00,Wunderground v.1.15,2013-07-23 21:12:00,
2013-07-23 16:18:00,77.3,56.1,29.82,ESE,103,1.0,3.0,48,0.00,,,0.00,Wunderground v.1.15,2013-07-23 21:18:00,
2013-07-23 16:24:00,77.0,55.2,29.81,WSW,255,2.0,2.0,47,0.00,,,0.00,Wunderground v.1.15,2013-07-23 21:24:00,
2013-07-23 16:29:00,77.7,57.6,29.81,ENE,70,1.0,2.0,50,0.00,,,0.00,Wunderground v.1.15,2013-07-23 21:29:00,
2013-07-23 16:34:00,77.7,57.6,29.81,NNW,330,1.0,2.0,50,0.00,,,0.00,Wunderground v.1.15,2013-07-23 21:34:00,
2013-07-23 16:40:00,78.2,56.3,29.81,ENE,78,1.0,2.0,47,0.00,,,0.00,Wunderground v.1.15,2013-07-23 21:40:00,
2013-07-23 16:45:00,78.2,59.1,29.81,ENE,63,1.0,2.0,52,0.00,,,0.00,Wunderground v.1.15,2013-07-23 21:45:00,
2013-07-23 16:51:00,77.3,56.1,29.81,ENE,71,2.0,2.0,48,0.00,,,0.00,Wunderground v.1.15,2013-07-23 21:51:00,
2013-07-23 16:56:00,76.9,57.4,29.81,East,93,2.0,2.0,51,0.00,,,0.00,Wunderground v.1.15,2013-07-23 21:56:00,
2013-07-23 17:01:00,76.4,56.9,29.81,East,80,2.0,2.0,51,0.00,,,0.00,Wunderground v.1.15,2013-07-23 22:01:00,
2013-07-23 17:07:00,76.6,56.6,29.81,NNE,19,1.0,2.0,50,0.00,,,0.00,Wunderground v.1.15,2013-07-23 22:07:00,
2013-07-23 17:12:00,76.9,57.4,29.81,ENE,77,1.0,1.0,51,0.00,,,0.00,Wunderground v.1.15,2013-07-23 22:12:00,
2013-07-23 17:18:00,76.7,57.7,29.81,ENE,58,1.0,2.0,52,0.00,,,0.00,Wunderground v.1.15,2013-07-23 22:18:00,
2013-07-23 17:23:00,76.5,56.5,29.81,East,97,1.0,3.0,50,0.00,,,0.00,Wunderground v.1.15,2013-07-23 22:23:00,
2013-07-23 17:28:00,76.8,57.3,29.81,East,86,1.0,3.0,51,0.00,,,0.00,Wunderground v.1.15,2013-07-23 22:28:00,
2013-07-23 17:33:00,76.8,57.3,29.81,NNE,18,1.0,1.0,51,0.00,,,0.00,Wunderground v.1.15,2013-07-23 22:33:00,
2013-07-23 17:38:00,76.4,55.3,29.82,NNE,12,1.0,1.0,48,0.00,,,0.00,Wunderground v.1.15,2013-07-23 22:38:00,
2013-07-23 17:43:00,76.4,55.8,29.82,East,82,1.0,1.0,49,0.00,,,0.00,Wunderground v.1.15,2013-07-23 22:43:00,
2013-07-23 17:48:00,76.6,56.6,29.82,East,91,1.0,2.0,50,0.00,,,0.00,Wunderground v.1.15,2013-07-23 22:48:00,
2013-07-23 17:54:00,75.7,57.4,29.82,ENE,67,1.0,1.0,53,0.00,,,0.00,Wunderground v.1.15,2013-07-23 22:54:00,
2013-07-23 18:00:00,75.4,56.5,29.81,SW,231,1.0,1.0,52,0.00,,,0.00,Wunderground v.1.15,2013-07-23 23:00:00,
2013-07-23 18:05:00,75.3,57.0,29.81,NE,39,1.0,1.0,53,0.00,,,0.00,Wunderground v.1.15,2013-07-23 23:05:00,
2013-07-23 18:10:00,75.1,56.3,29.81,NNE,27,0.0,2.0,52,0.00,,,0.00,Wunderground v.1.15,2013-07-23 23:10:00,
2013-07-23 18:15:00,74.8,56.5,29.81,North,8,0.0,2.0,53,0.00,,,0.00,Wunderground v.1.15,2013-07-23 23:15:00,
2013-07-23 18:20:00,74.4,55.6,29.81,ENE,70,0.0,1.0,52,0.00,,,0.00,Wunderground v.1.15,2013-07-23 23:20:00,
2013-07-23 18:25:00,74.1,56.4,29.82,ENE,70,0.0,1.0,54,0.00,,,0.00,Wunderground v.1.15,2013-07-23 23:25:00,
2013-07-23 18:30:00,74.0,58.3,29.81,ENE,72,0.0,1.0,58,0.00,,,0.00,Wunderground v.1.15,2013-07-23 23:30:00,
2013-07-23 18:36:00,73.6,56.4,29.82,ENE,72,0.0,1.0,55,0.00,,,0.00,Wunderground v.1.15,2013-07-23 23:36:00,
2013-07-23 18:41:00,73.4,55.7,29.82,NE,36,0.0,1.0,54,0.00,,,0.00,Wunderground v.1.15,2013-07-23 23:41:00,
2013-07-23 18:46:00,73.2,56.6,29.82,NE,41,0.0,1.0,56,0.00,,,0.00,Wunderground v.1.15,2013-07-23 23:46:00,
2013-07-23 18:51:00,72.8,56.2,29.82,ENE,67,1.0,1.0,56,0.00,,,0.00,Wunderground v.1.15,2013-07-23 23:51:00,
2013-07-23 18:57:00,72.6,56.0,29.82,ENE,66,1.0,1.0,56,0.00,,,0.00,Wunderground v.1.15,2013-07-23 23:57:00,
2013-07-23 19:02:00,72.7,56.6,29.82,ESE,105,0.0,1.0,57,0.00,,,0.00,Wunderground v.1.15,2013-07-24 00:02:00,
2013-07-23 19:07:00,72.8,57.2,29.82,ESE,110,0.0,1.0,58,0.00,,,0.00,Wunderground v.1.15,2013-07-24 00:07:00,
2013-07-23 19:13:00,72.7,57.1,29.82,East,91,0.0,1.0,58,0.00,,,0.00,Wunderground v.1.15,2013-07-24 00:13:00,
2013-07-23 19:18:00,72.6,57.0,29.82,East,86,0.0,1.0,58,0.00,,,0.00,Wunderground v.1.15,2013-07-24 00:18:00,
2013-07-23 19:23:00,72.2,57.1,29.82,East,86,0.0,1.0,59,0.00,,,0.00,Wunderground v.1.15,2013-07-24 00:23:00,
2013-07-23 19:28:00,72.0,56.9,29.82,East,86,0.0,1.0,59,0.00,,,0.00,Wunderground v.1.15,2013-07-24 00:28:00,
2013-07-23 19:33:00,71.7,56.6,29.82,East,86,0.0,1.0,59,0.00,,,0.00,Wunderground v.1.15,2013-07-24 00:33:00,
2013-07-23 19:38:00,71.5,57.8,29.82,East,86,0.0,1.0,62,0.00,,,0.00,Wunderground v.1.15,2013-07-24 00:38:00,
2013-07-23 19:43:00,71.1,57.4,29.83,East,86,0.0,1.0,62,0.00,,,0.00,Wunderground v.1.15,2013-07-24 00:43:00,
2013-07-23 19:48:00,70.9,57.7,29.83,East,86,0.0,1.0,63,0.00,,,0.00,Wunderground v.1.15,2013-07-24 00:48:00,
2013-07-23 19:53:00,70.5,56.9,29.83,East,86,0.0,1.0,62,0.00,,,0.00,Wunderground v.1.15,2013-07-24 00:53:00,
2013-07-23 19:59:00,70.1,56.9,29.83,East,86,0.0,1.0,63,0.00,,,0.00,Wunderground v.1.15,2013-07-24 00:59:00,
2013-07-23 20:04:00,69.8,56.6,29.83,East,86,0.0,1.0,63,0.00,,,0.00,Wunderground v.1.15,2013-07-24 01:04:00,
2013-07-23 20:09:00,69.6,56.4,29.83,East,86,0.0,1.0,63,0.00,,,0.00,Wunderground v.1.15,2013-07-24 01:09:00,
2013-07-23 20:15:00,69.3,56.6,29.83,East,86,0.0,1.0,64,0.00,,,0.00,Wunderground v.1.15,2013-07-24 01:15:00,
2013-07-23 20:20:00,69.1,57.7,29.83,East,86,0.0,1.0,67,0.00,,,0.00,Wunderground v.1.15,2013-07-24 01:20:00,
2013-07-23 20:25:00,69.0,58.0,29.83,East,86,0.0,1.0,68,0.00,,,0.00,Wunderground v.1.15,2013-07-24 01:25:00,
2013-07-23 20:30:00,68.9,57.9,29.83,East,86,0.0,1.0,68,0.00,,,0.00,Wunderground v.1.15,2013-07-24 01:30:00,
2013-07-23 20:35:00,68.4,57.4,29.83,East,86,0.0,1.0,68,0.00,,,0.00,Wunderground v.1.15,2013-07-24 01:35:00,
2013-07-23 20:41:00,68.2,58.0,29.83,East,86,0.0,1.0,70,0.00,,,0.00,Wunderground v.1.15,2013-07-24 01:41:00,
2013-07-23 20:47:00,67.9,56.9,29.83,East,86,0.0,1.0,68,0.00,,,0.00,Wunderground v.1.15,2013-07-24 01:47:00,
2013-07-23 20:52:00,67.5,57.4,29.83,East,86,0.0,1.0,70,0.00,,,0.00,Wunderground v.1.15,2013-07-24 01:52:00,
2013-07-23 20:57:00,67.3,57.6,29.83,East,86,0.0,1.0,71,0.00,,,0.00,Wunderground v.1.15,2013-07-24 01:57:00,
2013-07-23 21:02:00,67.0,56.9,29.83,East,86,0.0,1.0,70,0.00,,,0.00,Wunderground v.1.15,2013-07-24 02:02:00,
2013-07-23 21:07:00,66.9,57.6,29.83,East,86,0.0,1.0,72,0.00,,,0.00,Wunderground v.1.15,2013-07-24 02:07:00,
2013-07-23 21:12:00,66.5,57.6,29.83,East,86,0.0,1.0,73,0.00,,,0.00,Wunderground v.1.15,2013-07-24 02:12:00,
2013-07-23 21:17:00,66.2,56.5,29.84,East,86,0.0,1.0,71,0.00,,,0.00,Wunderground v.1.15,2013-07-24 02:17:00,
2013-07-23 21:23:00,65.7,57.2,29.84,East,86,0.0,1.0,74,0.00,,,0.00,Wunderground v.1.15,2013-07-24 02:23:00,
2013-07-23 21:28:00,65.5,57.7,29.84,East,86,0.0,1.0,76,0.00,,,0.00,Wunderground v.1.15,2013-07-24 02:28:00,
2013-07-23 21:33:00,65.3,57.9,29.84,East,86,0.0,1.0,77,0.00,,,0.00,Wunderground v.1.15,2013-07-24 02:33:00,
2013-07-23 21:38:00,65.2,58.2,29.84,East,86,0.0,1.0,78,0.00,,,0.00,Wunderground v.1.15,2013-07-24 02:38:00,
2013-07-23 21:44:00,65.0,58.0,29.84,East,86,0.0,1.0,78,0.00,,,0.00,Wunderground v.1.15,2013-07-24 02:44:00,
2013-07-23 21:49:00,64.9,57.9,29.85,East,86,0.0,1.0,78,0.00,,,0.00,Wunderground v.1.15,2013-07-24 02:49:00,
2013-07-23 21:54:00,64.8,58.5,29.85,East,86,0.0,1.0,80,0.00,,,0.00,Wunderground v.1.15,2013-07-24 02:54:00,
2013-07-23 22:00:00,64.5,57.5,29.85,East,86,0.0,1.0,78,0.00,,,0.00,Wunderground v.1.15,2013-07-24 03:00:00,
2013-07-23 22:06:00,64.3,57.6,29.85,East,86,0.0,1.0,79,0.00,,,0.00,Wunderground v.1.15,2013-07-24 03:06:00,
2013-07-23 22:11:00,64.2,56.5,29.85,East,86,0.0,1.0,76,0.00,,,0.00,Wunderground v.1.15,2013-07-24 03:11:00,
2013-07-23 22:16:00,64.3,57.3,29.85,East,86,0.0,1.0,78,0.00,,,0.00,Wunderground v.1.15,2013-07-24 03:16:00,
2013-07-23 22:21:00,64.3,57.6,29.85,East,86,0.0,1.0,79,0.00,,,0.00,Wunderground v.1.15,2013-07-24 03:21:00,
2013-07-23 22:27:00,64.0,56.6,29.85,East,86,0.0,1.0,77,0.00,,,0.00,Wunderground v.1.15,2013-07-24 03:27:00,
2013-07-23 22:32:00,63.9,56.2,29.84,East,86,0.0,1.0,76,0.00,,,0.00,Wunderground v.1.15,2013-07-24 03:32:00,
2013-07-23 22:37:00,63.8,55.7,29.85,East,86,0.0,1.0,75,0.00,,,0.00,Wunderground v.1.15,2013-07-24 03:37:00,
2013-07-23 22:42:00,63.8,56.4,29.85,East,86,0.0,1.0,77,0.00,,,0.00,Wunderground v.1.15,2013-07-24 03:42:00,
2013-07-23 22:48:00,63.6,57.0,29.85,East,86,0.0,1.0,79,0.00,,,0.00,Wunderground v.1.15,2013-07-24 03:48:00,
2013-07-23 22:53:00,63.3,54.9,29.85,East,86,0.0,1.0,74,0.00,,,0.00,Wunderground v.1.15,2013-07-24 03:53:00,
2013-07-23 22:58:00,63.2,55.1,29.85,East,86,0.0,1.0,75,0.00,,,0.00,Wunderground v.1.15,2013-07-24 03:58:00,
2013-07-23 23:01:00,63.3,55.6,29.86,East,86,0.0,1.0,76,0.00,,,0.00,Wunderground v.1.15,2013-07-24 04:01:00,
2013-07-23 23:02:00,63.2,55.1,29.85,East,86,0.0,1.0,75,0.00,,,0.00,Wunderground v.1.15,2013-07-24 04:02:00,
2013-07-23 23:03:00,63.2,55.1,29.85,East,86,0.0,1.0,75,0.00,,,0.00,Wunderground v.1.15,2013-07-24 04:03:00,
2013-07-23 23:04:00,63.2,55.1,29.86,East,86,0.0,1.0,75,0.00,,,0.00,Wunderground v.1.15,2013-07-24 04:04:00,
2013-07-23 23:05:00,63.2,55.1,29.86,East,86,0.0,1.0,75,0.00,,,0.00,Wunderground v.1.15,2013-07-24 04:05:00,
2013-07-23 23:10:00,63.3,57.0,29.86,East,86,0.0,1.0,80,0.00,,,0.00,Wunderground v.1.15,2013-07-24 04:10:00,
2013-07-23 23:16:00,63.1,56.5,29.86,East,86,0.0,1.0,79,0.00,,,0.00,Wunderground v.1.15,2013-07-24 04:16:00,
2013-07-23 23:21:00,62.8,56.5,29.86,East,86,0.0,1.0,80,0.00,,,0.00,Wunderground v.1.15,2013-07-24 04:21:00,
2013-07-23 23:26:00,62.5,56.2,29.86,East,86,0.0,1.0,80,0.00,,,0.00,Wunderground v.1.15,2013-07-24 04:26:00,
2013-07-23 23:31:00,62.5,56.9,29.86,East,86,0.0,1.0,82,0.00,,,0.00,Wunderground v.1.15,2013-07-24 04:31:00,
2013-07-23 23:36:00,62.3,55.7,29.86,East,86,0.0,1.0,79,0.00,,,0.00,Wunderground v.1.15,2013-07-24 04:36:00,
2013-07-23 23:42:00,62.3,56.4,29.86,East,86,0.0,1.0,81,0.00,,,0.00,Wunderground v.1.15,2013-07-24 04:42:00,
2013-07-23 23:47:00,62.2,56.0,29.87,East,86,0.0,1.0,80,0.00,,,0.00,Wunderground v.1.15,2013-07-24 04:47:00,
2013-07-23 23:52:00,62.2,57.0,29.87,East,86,0.0,1.0,83,0.00,,,0.00,Wunderground v.1.15,2013-07-24 04:52:00,
2013-07-23 23:57:00,62.0,56.8,29.86,East,86,0.0,1.0,83,0.00,,,0.00,Wunderground v.1.15,2013-07-24 04:57:00,